Time,TemperatureF,DewpointF,PressureIn,WindDirection,WindDirectionDegrees,WindSpeedMPH,WindSpeedGustMPH,Humidity,HourlyPrecipIn,Conditions,Clouds,dailyrainin,SoftwareType,DateUTC
2013-03-29 00:04:00,45.3,6.5,30.18,WNW,292,0.0,3.0,20,0.00,,,-99.99,Weather View 32 v60,2013-03-29 04:04:00,
2013-03-29 00:09:00,45.0,6.2,30.18,WNW,292,0.0,3.0,20,0.00,,,-99.99,Weather View 32 v60,2013-03-29 04:09:00,
2013-03-29 00:14:00,44.8,6.1,30.18,WNW,292,0.0,3.0,20,0.00,,,-99.99,Weather View 32 v60,2013-03-29 04:14:00,
2013-03-29 00:19:00,44.6,5.9,30.18,WNW,292,0.0,3.0,20,0.00,,,-99.99,Weather View 32 v60,2013-03-29 04:19:00,
2013-03-29 00:24:00,44.2,5.7,30.18,WNW,292,0.0,3.0,20,0.00,,,-99.99,Weather View 32 v60,2013-03-29 04:24:00,
2013-03-29 00:29:00,44.1,5.5,30.18,WNW,292,0.0,3.0,20,0.00,,,-99.99,Weather View 32 v60,2013-03-29 04:29:00,
2013-03-29 00:34:00,43.7,5.2,30.18,WNW,292,0.0,0.0,20,0.00,,,-99.99,Weather View 32 v60,2013-03-29 04:34:00,
2013-03-29 00:39:00,43.5,5.1,30.18,WNW,292,0.0,0.0,20,0.00,,,-99.99,Weather View 32 v60,2013-03-29 04:39:00,
2013-03-29 00:49:00,43.0,4.6,30.18,WNW,292,0.0,0.0,20,0.00,,,-99.99,Weather View 32 v60,2013-03-29 04:49:00,
2013-03-29 00:59:00,42.4,4.2,30.18,WNW,292,0.0,0.0,20,0.00,,,-99.99,Weather View 32 v60,2013-03-29 04:59:00,
2013-03-29 01:04:00,42.3,4.0,30.18,WNW,292,0.0,0.0,20,0.00,,,-99.99,Weather View 32 v60,2013-03-29 05:04:00,
2013-03-29 01:09:00,42.1,3.8,30.18,WNW,292,0.0,0.0,20,0.00,,,-99.99,Weather View 32 v60,2013-03-29 05:09:00,
2013-03-29 01:19:00,41.5,4.5,30.18,WNW,292,0.0,0.0,21,0.00,,,-99.99,Weather View 32 v60,2013-03-29 05:19:00,
2013-03-29 01:29:00,41.2,4.2,30.18,WNW,292,0.0,0.0,21,0.00,,,-99.99,Weather View 32 v60,2013-03-29 05:29:00,
2013-03-29 01:34:00,41.0,4.0,30.18,WNW,292,0.0,0.0,21,0.00,,,-99.99,Weather View 32 v60,2013-03-29 05:34:00,
2013-03-29 01:44:00,40.6,3.7,30.18,WNW,292,0.0,0.0,21,0.00,,,-99.99,Weather View 32 v60,2013-03-29 05:44:00,
2013-03-29 01:54:00,40.3,3.4,30.18,WNW,292,0.0,0.0,21,0.00,,,-99.99,Weather View 32 v60,2013-03-29 05:54:00,
2013-03-29 02:04:00,40.6,3.7,30.18,WNW,292,0.0,0.0,21,0.00,,,-99.99,Weather View 32 v60,2013-03-29 06:04:00,
2013-03-29 02:14:00,40.8,3.9,30.18,WNW,292,0.0,0.0,21,0.00,,,-99.99,Weather View 32 v60,2013-03-29 06:14:00,
2013-03-29 02:20:00,40.5,3.6,30.18,WNW,292,0.0,0.0,21,0.00,,,-99.99,Weather View 32 v60,2013-03-29 06:20:00,
2013-03-29 02:29:00,40.5,3.6,30.18,WNW,292,0.0,0.0,21,0.00,,,-99.99,Weather View 32 v60,2013-03-29 06:29:00,
2013-03-29 02:39:00,40.1,3.3,30.18,WNW,292,0.0,0.0,21,0.00,,,-99.99,Weather View 32 v60,2013-03-29 06:39:00,
2013-03-29 02:44:00,39.9,3.1,30.18,WNW,292,0.0,0.0,21,0.00,,,-99.99,Weather View 32 v60,2013-03-29 06:44:00,
2013-03-29 02:49:00,39.6,2.8,30.18,WNW,292,0.0,0.0,21,0.00,,,-99.99,Weather View 32 v60,2013-03-29 06:49:00,
2013-03-29 02:59:00,38.8,2.2,30.18,WNW,292,0.0,0.0,21,0.00,,,-99.99,Weather View 32 v60,2013-03-29 06:59:00,
2013-03-29 03:09:00,38.1,1.6,30.18,WNW,292,0.0,0.0,21,0.00,,,-99.99,Weather View 32 v60,2013-03-29 07:09:00,
2013-03-29 03:19:00,37.8,1.3,30.18,WNW,292,0.0,0.0,21,0.00,,,-99.99,Weather View 32 v60,2013-03-29 07:19:00,
2013-03-29 03:29:00,37.6,1.1,30.18,WNW,292,0.0,0.0,21,0.00,,,-99.99,Weather View 32 v60,2013-03-29 07:29:00,
2013-03-29 03:34:00,37.4,1.0,30.18,WNW,292,0.0,0.0,21,0.00,,,-99.99,Weather View 32 v60,2013-03-29 07:34:00,
2013-03-29 03:44:00,37.2,0.8,30.18,WNW,292,0.0,0.0,21,0.00,,,-99.99,Weather View 32 v60,2013-03-29 07:44:00,
2013-03-29 03:54:00,37.0,0.7,30.18,WNW,292,0.0,0.0,21,0.00,,,-99.99,Weather View 32 v60,2013-03-29 07:54:00,
2013-03-29 04:04:00,37.0,0.7,30.18,WNW,292,0.0,0.0,21,0.00,,,-99.99,Weather View 32 v60,2013-03-29 08:04:00,
2013-03-29 04:09:00,36.9,0.5,30.18,WNW,292,0.0,0.0,21,0.00,,,-99.99,Weather View 32 v60,2013-03-29 08:09:00,
2013-03-29 04:19:00,36.7,0.4,30.18,WNW,292,0.0,0.0,21,0.00,,,-99.99,Weather View 32 v60,2013-03-29 08:19:00,
2013-03-29 04:29:00,36.0,0.8,30.18,NNW,339,0.0,4.0,22,0.00,,,-99.99,Weather View 32 v60,2013-03-29 08:29:00,
2013-03-29 04:34:00,36.1,0.9,30.18,NNW,339,0.0,4.0,22,0.00,,,-99.99,Weather View 32 v60,2013-03-29 08:34:00,
2013-03-29 04:39:00,35.8,0.6,30.18,NNW,339,0.0,4.0,22,0.00,,,-99.99,Weather View 32 v60,2013-03-29 08:39:00,
2013-03-29 04:49:00,35.6,0.5,30.18,NNW,339,3.0,4.0,22,0.00,,,-99.99,Weather View 32 v60,2013-03-29 08:49:00,
2013-03-29 04:54:00,35.2,0.2,30.18,NNW,339,0.0,4.0,22,0.00,,,-99.99,Weather View 32 v60,2013-03-29 08:54:00,
2013-03-29 04:59:00,35.1,0.0,30.18,NNW,339,0.0,4.0,22,0.00,,,-99.99,Weather View 32 v60,2013-03-29 08:59:00,
2013-03-29 05:04:00,34.9,-0.1,30.18,NNW,339,0.0,4.0,22,0.00,,,-99.99,Weather View 32 v60,2013-03-29 09:04:00,
2013-03-29 05:14:00,34.5,-0.4,30.18,NNW,339,0.0,4.0,22,0.00,,,-99.99,Weather View 32 v60,2013-03-29 09:14:00,
2013-03-29 05:22:00,34.2,-0.8,30.18,NNW,339,0.0,4.0,22,0.00,,,-99.99,Weather View 32 v60,2013-03-29 09:22:00,
2013-03-29 05:29:00,34.0,-0.9,30.18,NNW,339,0.0,3.0,22,0.00,,,-99.99,Weather View 32 v60,2013-03-29 09:29:00,
2013-03-29 05:34:00,33.8,-1.1,30.18,NNW,339,0.0,3.0,22,0.00,,,-99.99,Weather View 32 v60,2013-03-29 09:34:00,
2013-03-29 05:44:00,33.6,-1.2,30.18,NNW,339,0.0,3.0,22,0.00,,,-99.99,Weather View 32 v60,2013-03-29 09:44:00,
2013-03-29 05:54:00,33.4,-1.4,30.18,NNW,339,0.0,3.0,22,0.00,,,-99.99,Weather View 32 v60,2013-03-29 09:54:00,
2013-03-29 06:04:00,33.1,-1.7,30.21,NNW,339,0.0,3.0,22,0.00,,,-99.99,Weather View 32 v60,2013-03-29 10:04:00,
2013-03-29 06:14:00,32.7,-1.0,30.21,NNW,338,0.0,4.0,23,0.00,,,-99.99,Weather View 32 v60,2013-03-29 10:14:00,
2013-03-29 06:22:00,32.5,-1.2,30.21,NNW,338,0.0,4.0,23,0.00,,,-99.99,Weather View 32 v60,2013-03-29 10:22:00,
2013-03-29 06:29:00,32.4,-1.3,30.21,NNW,338,0.0,4.0,23,0.00,,,-99.99,Weather View 32 v60,2013-03-29 10:29:00,
2013-03-29 06:34:00,32.4,-1.3,30.21,NNW,338,0.0,4.0,23,0.00,,,-99.99,Weather View 32 v60,2013-03-29 10:34:00,
2013-03-29 06:44:00,32.4,-1.3,30.21,NNW,338,0.0,4.0,23,0.00,,,-99.99,Weather View 32 v60,2013-03-29 10:44:00,
2013-03-29 06:54:00,32.4,-1.3,30.21,NNW,338,0.0,4.0,23,0.00,,,-99.99,Weather View 32 v60,2013-03-29 10:54:00,
2013-03-29 07:04:00,32.5,-1.2,30.21,NNW,338,0.0,4.0,23,0.00,,,-99.99,Weather View 32 v60,2013-03-29 11:04:00,
2013-03-29 07:14:00,32.4,-1.3,30.21,NNW,338,0.0,4.0,23,0.00,,,-99.99,Weather View 32 v60,2013-03-29 11:14:00,
2013-03-29 07:19:00,32.2,-1.5,30.21,NNW,338,0.0,0.0,23,0.00,,,-99.99,Weather View 32 v60,2013-03-29 11:19:00,
2013-03-29 07:24:00,32.4,-1.3,30.21,NNW,338,0.0,0.0,23,0.00,,,-99.99,Weather View 32 v60,2013-03-29 11:24:00,
2013-03-29 07:29:00,32.2,-1.5,30.21,North,356,0.0,3.0,23,0.00,,,-99.99,Weather View 32 v60,2013-03-29 11:29:00,
2013-03-29 07:34:00,32.2,-1.5,30.21,North,356,0.0,3.0,23,0.00,,,-99.99,Weather View 32 v60,2013-03-29 11:34:00,
2013-03-29 07:39:00,32.4,-1.3,30.21,North,356,3.0,3.0,23,0.00,,,-99.99,Weather View 32 v60,2013-03-29 11:39:00,
2013-03-29 07:49:00,32.5,-1.2,30.21,North,351,0.0,4.0,23,0.00,,,-99.99,Weather View 32 v60,2013-03-29 11:49:00,
2013-03-29 07:54:00,32.7,-1.0,30.21,North,351,0.0,4.0,23,0.00,,,-99.99,Weather View 32 v60,2013-03-29 11:54:00,
2013-03-29 08:00:00,32.9,-0.9,30.21,North,351,0.0,4.0,23,0.00,,,-99.99,Weather View 32 v60,2013-03-29 12:00:00,
2013-03-29 08:09:00,33.3,-1.5,30.21,North,351,0.0,4.0,22,0.00,,,-99.99,Weather View 32 v60,2013-03-29 12:09:00,
2013-03-29 08:14:00,33.6,-1.2,30.21,North,351,0.0,4.0,22,0.00,,,-99.99,Weather View 32 v60,2013-03-29 12:14:00,
2013-03-29 08:19:00,34.0,-0.9,30.21,North,351,0.0,4.0,22,0.00,,,-99.99,Weather View 32 v60,2013-03-29 12:19:00,
2013-03-29 08:29:00,34.9,-0.1,30.21,North,351,0.0,4.0,22,0.00,,,-99.99,Weather View 32 v60,2013-03-29 12:29:00,
2013-03-29 08:34:00,35.4,0.3,30.21,North,351,0.0,4.0,22,0.00,,,-99.99,Weather View 32 v60,2013-03-29 12:34:00,
2013-03-29 08:39:00,35.6,0.5,30.21,North,351,0.0,4.0,22,0.00,,,-99.99,Weather View 32 v60,2013-03-29 12:39:00,
2013-03-29 08:49:00,36.7,0.4,30.21,North,351,0.0,0.0,21,0.00,,,-99.99,Weather View 32 v60,2013-03-29 12:49:00,
2013-03-29 08:59:00,37.8,1.3,30.21,North,351,0.0,0.0,21,0.00,,,-99.99,Weather View 32 v60,2013-03-29 12:59:00,
2013-03-29 09:04:00,38.3,1.7,30.24,West,278,0.0,0.0,21,0.00,,,-99.99,Weather View 32 v60,2013-03-29 13:04:00,
2013-03-29 09:09:00,39.0,2.3,30.24,West,278,0.0,0.0,21,0.00,,,-99.99,Weather View 32 v60,2013-03-29 13:09:00,
2013-03-29 09:19:00,40.8,3.9,30.21,West,278,0.0,0.0,21,0.00,,,-99.99,Weather View 32 v60,2013-03-29 13:19:00,
2013-03-29 09:29:00,42.3,4.0,30.21,West,278,0.0,0.0,20,0.00,,,-99.99,Weather View 32 v60,2013-03-29 13:29:00,
2013-03-29 09:39:00,43.7,5.2,30.24,WNW,285,3.0,4.0,20,0.00,,,-99.99,Weather View 32 v60,2013-03-29 13:39:00,
2013-03-29 09:44:00,44.6,5.9,30.24,West,269,0.0,4.0,20,0.00,,,-99.99,Weather View 32 v60,2013-03-29 13:44:00,
2013-03-29 09:54:00,46.0,6.0,30.24,West,269,0.0,4.0,19,0.00,,,-99.99,Weather View 32 v60,2013-03-29 13:54:00,
2013-03-29 09:59:00,46.8,6.6,30.24,West,269,0.0,4.0,19,0.00,,,-99.99,Weather View 32 v60,2013-03-29 13:59:00,
2013-03-29 10:04:00,47.3,7.1,30.24,West,269,0.0,4.0,19,0.00,,,-99.99,Weather View 32 v60,2013-03-29 14:04:00,
2013-03-29 10:09:00,48.4,8.0,30.24,West,269,4.0,4.0,19,0.00,,,-99.99,Weather View 32 v60,2013-03-29 14:09:00,
2013-03-29 10:19:00,49.6,9.0,30.24,SW,224,0.0,4.0,19,0.00,,,-99.99,Weather View 32 v60,2013-03-29 14:19:00,
2013-03-29 10:25:00,50.5,9.7,30.24,SSE,158,4.0,5.0,19,0.00,,,-99.99,Weather View 32 v60,2013-03-29 14:25:00,
2013-03-29 10:34:00,52.2,9.9,30.24,SE,138,3.0,5.0,18,0.00,,,-99.99,Weather View 32 v60,2013-03-29 14:34:00,
2013-03-29 10:44:00,52.3,10.0,30.24,WSW,254,3.0,5.0,18,0.00,,,-99.99,Weather View 32 v60,2013-03-29 14:44:00,
2013-03-29 10:54:00,53.4,10.9,30.21,SSE,157,0.0,5.0,18,0.00,,,-99.99,Weather View 32 v60,2013-03-29 14:54:00,
2013-03-29 10:59:00,54.1,11.5,30.21,ENE,75,3.0,5.0,18,0.00,,,-99.99,Weather View 32 v60,2013-03-29 14:59:00,
2013-03-29 11:09:00,55.9,11.7,30.24,East,85,0.0,6.0,17,0.00,,,-99.99,Weather View 32 v60,2013-03-29 15:09:00,
2013-03-29 11:19:00,57.4,12.8,30.21,SE,144,4.0,7.0,17,0.00,,,-99.99,Weather View 32 v60,2013-03-29 15:19:00,
2013-03-29 11:25:00,58.1,13.4,30.21,SE,136,8.0,8.0,17,0.00,,,-99.99,Weather View 32 v60,2013-03-29 15:25:00,
2013-03-29 11:34:00,58.8,14.0,30.21,SSE,148,4.0,8.0,17,0.00,,,-99.99,Weather View 32 v60,2013-03-29 15:34:00,
2013-03-29 11:39:00,59.0,14.2,30.21,SE,138,8.0,8.0,17,0.00,,,-99.99,Weather View 32 v60,2013-03-29 15:39:00,
2013-03-29 11:44:00,59.0,14.2,30.21,SE,142,6.0,8.0,17,0.00,,,-99.99,Weather View 32 v60,2013-03-29 15:44:00,
2013-03-29 11:54:00,58.5,13.7,30.21,ESE,115,4.0,8.0,17,0.00,,,-99.99,Weather View 32 v60,2013-03-29 15:54:00,
2013-03-29 11:59:00,57.9,13.3,30.21,ESE,107,3.0,8.0,17,0.00,,,-99.99,Weather View 32 v60,2013-03-29 15:59:00,
2013-03-29 12:04:00,57.6,13.0,30.21,SSW,211,0.0,8.0,17,0.00,,,-99.99,Weather View 32 v60,2013-03-29 16:04:00,
2013-03-29 12:09:00,57.6,13.0,30.21,SSE,149,4.0,8.0,17,0.00,,,-99.99,Weather View 32 v60,2013-03-29 16:09:00,
2013-03-29 12:19:00,58.5,13.7,30.21,SE,131,3.0,8.0,17,0.00,,,-99.99,Weather View 32 v60,2013-03-29 16:19:00,
2013-03-29 12:24:00,58.6,13.9,30.21,SSE,156,0.0,8.0,17,0.00,,,-99.99,Weather View 32 v60,2013-03-29 16:24:00,
2013-03-29 12:34:00,60.1,13.7,30.21,WSW,239,0.0,8.0,16,0.00,,,-99.99,Weather View 32 v60,2013-03-29 16:34:00,
2013-03-29 12:39:00,59.9,13.5,30.21,SE,125,3.0,8.0,16,0.00,,,-99.99,Weather View 32 v60,2013-03-29 16:39:00,
2013-03-29 12:49:00,59.2,14.3,30.18,SW,235,0.0,6.0,17,0.00,,,-99.99,Weather View 32 v60,2013-03-29 16:49:00,
2013-03-29 12:54:00,59.2,14.3,30.18,WNW,295,3.0,6.0,17,0.00,,,-99.99,Weather View 32 v60,2013-03-29 16:54:00,
2013-03-29 12:59:00,58.5,13.7,30.18,WNW,295,0.0,6.0,17,0.00,,,-99.99,Weather View 32 v60,2013-03-29 16:59:00,
2013-03-29 13:04:00,58.5,13.7,30.18,SE,124,3.0,6.0,17,0.00,,,-99.99,Weather View 32 v60,2013-03-29 17:04:00,
2013-03-29 13:14:00,59.7,14.7,30.18,SE,136,4.0,6.0,17,0.00,,,-99.99,Weather View 32 v60,2013-03-29 17:14:00,
2013-03-29 13:19:00,61.9,15.1,30.18,SW,216,3.0,6.0,16,0.00,,,-99.99,Weather View 32 v60,2013-03-29 17:19:00,
2013-03-29 13:27:00,63.0,16.0,30.18,ESE,120,6.0,6.0,16,0.00,,,-99.99,Weather View 32 v60,2013-03-29 17:27:00,
2013-03-29 13:34:00,62.4,15.5,30.15,East,98,4.0,8.0,16,0.00,,,-99.99,Weather View 32 v60,2013-03-29 17:34:00,
2013-03-29 13:44:00,62.1,15.3,30.15,SE,132,0.0,8.0,16,0.00,,,-99.99,Weather View 32 v60,2013-03-29 17:44:00,
2013-03-29 13:49:00,62.1,15.3,30.15,SSW,210,6.0,8.0,16,0.00,,,-99.99,Weather View 32 v60,2013-03-29 17:49:00,
2013-03-29 13:59:00,59.4,14.5,30.15,SW,232,0.0,8.0,17,0.00,,,-99.99,Weather View 32 v60,2013-03-29 17:59:00,
2013-03-29 14:09:00,57.9,13.3,30.15,WSW,247,4.0,8.0,17,0.00,,,-99.99,Weather View 32 v60,2013-03-29 18:09:00,
2013-03-29 14:14:00,57.6,13.0,30.15,NW,311,0.0,8.0,17,0.00,,,-99.99,Weather View 32 v60,2013-03-29 18:14:00,
2013-03-29 14:24:00,56.7,12.3,30.15,West,272,4.0,8.0,17,0.00,,,-99.99,Weather View 32 v60,2013-03-29 18:24:00,
2013-03-29 14:29:00,56.3,12.0,30.15,South,190,5.0,8.0,17,0.00,,,-99.99,Weather View 32 v60,2013-03-29 18:29:00,
2013-03-29 14:39:00,55.9,11.7,30.15,WSW,245,5.0,8.0,17,0.00,,,-99.99,Weather View 32 v60,2013-03-29 18:39:00,
2013-03-29 14:49:00,55.9,11.7,30.15,West,265,4.0,8.0,17,0.00,,,-99.99,Weather View 32 v60,2013-03-29 18:49:00,
2013-03-29 14:54:00,55.8,11.5,30.15,SSW,207,4.0,8.0,17,0.00,,,-99.99,Weather View 32 v60,2013-03-29 18:54:00,
2013-03-29 15:04:00,55.6,11.4,30.12,WNW,283,4.0,8.0,17,0.00,,,-99.99,Weather View 32 v60,2013-03-29 19:04:00,
2013-03-29 15:14:00,55.6,11.4,30.12,WNW,285,0.0,8.0,17,0.00,,,-99.99,Weather View 32 v60,2013-03-29 19:14:00,
2013-03-29 15:19:00,55.6,11.4,30.12,West,263,0.0,7.0,17,0.00,,,-99.99,Weather View 32 v60,2013-03-29 19:19:00,
2013-03-29 15:28:00,55.6,11.4,30.12,West,275,4.0,7.0,17,0.00,,,-99.99,Weather View 32 v60,2013-03-29 19:28:00,
2013-03-29 15:34:00,55.9,11.7,30.12,WSW,248,3.0,7.0,17,0.00,,,-99.99,Weather View 32 v60,2013-03-29 19:34:00,
2013-03-29 15:39:00,55.9,11.7,30.12,West,261,0.0,7.0,17,0.00,,,-99.99,Weather View 32 v60,2013-03-29 19:39:00,
2013-03-29 15:44:00,55.9,11.7,30.12,WNW,282,0.0,7.0,17,0.00,,,-99.99,Weather View 32 v60,2013-03-29 19:44:00,
2013-03-29 15:49:00,56.1,11.8,30.12,NW,307,0.0,7.0,17,0.00,,,-99.99,Weather View 32 v60,2013-03-29 19:49:00,
2013-03-29 15:54:00,56.1,11.8,30.12,West,280,3.0,7.0,17,0.00,,,-99.99,Weather View 32 v60,2013-03-29 19:54:00,
2013-03-29 16:04:00,56.5,12.1,30.12,SW,235,4.0,7.0,17,0.00,,,-99.99,Weather View 32 v60,2013-03-29 20:04:00,
2013-03-29 16:14:00,57.6,13.0,30.12,South,170,0.0,5.0,17,0.00,,,-99.99,Weather View 32 v60,2013-03-29 20:14:00,
2013-03-29 16:19:00,58.5,13.7,30.12,WSW,241,3.0,6.0,17,0.00,,,-99.99,Weather View 32 v60,2013-03-29 20:19:00,
2013-03-29 16:28:00,58.5,13.7,30.12,SSE,151,4.0,6.0,17,0.00,,,-99.99,Weather View 32 v60,2013-03-29 20:28:00,
2013-03-29 16:34:00,58.6,13.9,30.12,NW,317,0.0,6.0,17,0.00,,,-99.99,Weather View 32 v60,2013-03-29 20:34:00,
2013-03-29 16:39:00,59.7,14.7,30.12,NNW,339,3.0,7.0,17,0.00,,,-99.99,Weather View 32 v60,2013-03-29 20:39:00,
2013-03-29 16:44:00,61.7,15.0,30.12,West,281,5.0,7.0,16,0.00,,,-99.99,Weather View 32 v60,2013-03-29 20:44:00,
2013-03-29 16:54:00,62.2,15.4,30.09,WSW,239,5.0,7.0,16,0.00,,,-99.99,Weather View 32 v60,2013-03-29 20:54:00,
2013-03-29 17:04:00,62.2,15.4,30.09,West,279,6.0,7.0,16,0.00,,,-99.99,Weather View 32 v60,2013-03-29 21:04:00,
2013-03-29 17:09:00,61.5,14.8,30.09,WNW,289,4.0,7.0,16,0.00,,,-99.99,Weather View 32 v60,2013-03-29 21:09:00,
2013-03-29 17:19:00,61.0,14.4,30.09,SSW,203,0.0,7.0,16,0.00,,,-99.99,Weather View 32 v60,2013-03-29 21:19:00,
2013-03-29 17:24:00,61.0,14.4,30.09,NNW,344,4.0,7.0,16,0.00,,,-99.99,Weather View 32 v60,2013-03-29 21:24:00,
2013-03-29 17:29:00,60.8,14.2,30.09,ESE,111,0.0,7.0,16,0.00,,,-99.99,Weather View 32 v60,2013-03-29 21:29:00,
2013-03-29 17:39:00,60.3,13.8,30.09,ENE,69,0.0,7.0,16,0.00,,,-99.99,Weather View 32 v60,2013-03-29 21:39:00,
2013-03-29 17:49:00,60.1,13.7,30.09,SE,137,0.0,7.0,16,0.00,,,-99.99,Weather View 32 v60,2013-03-29 21:49:00,
2013-03-29 17:54:00,59.9,13.5,30.09,NNE,17,3.0,7.0,16,0.00,,,-99.99,Weather View 32 v60,2013-03-29 21:54:00,
2013-03-29 17:59:00,59.9,13.5,30.09,NE,46,0.0,7.0,16,0.00,,,-99.99,Weather View 32 v60,2013-03-29 21:59:00,
2013-03-29 18:09:00,59.7,14.7,30.09,ESE,119,0.0,7.0,17,0.00,,,-99.99,Weather View 32 v60,2013-03-29 22:09:00,
2013-03-29 18:14:00,59.4,14.5,30.09,ESE,119,0.0,7.0,17,0.00,,,-99.99,Weather View 32 v60,2013-03-29 22:14:00,
2013-03-29 18:19:00,59.2,14.3,30.09,ESE,119,0.0,6.0,17,0.00,,,-99.99,Weather View 32 v60,2013-03-29 22:19:00,
2013-03-29 18:29:00,58.8,14.0,30.09,SE,140,4.0,6.0,17,0.00,,,-99.99,Weather View 32 v60,2013-03-29 22:29:00,
2013-03-29 18:34:00,58.3,13.6,30.09,North,4,3.0,6.0,17,0.00,,,-99.99,Weather View 32 v60,2013-03-29 22:34:00,
2013-03-29 18:39:00,58.1,13.4,30.09,ENE,70,3.0,6.0,17,0.00,,,-99.99,Weather View 32 v60,2013-03-29 22:39:00,
2013-03-29 18:49:00,57.2,12.7,30.09,NE,55,3.0,5.0,17,0.00,,,-99.99,Weather View 32 v60,2013-03-29 22:49:00,
2013-03-29 18:54:00,57.0,12.6,30.09,West,263,0.0,5.0,17,0.00,,,-99.99,Weather View 32 v60,2013-03-29 22:54:00,
2013-03-29 19:04:00,56.7,12.3,30.09,WSW,241,0.0,5.0,17,0.00,,,-99.99,Weather View 32 v60,2013-03-29 23:04:00,
2013-03-29 19:14:00,56.3,12.0,30.09,SSE,156,0.0,5.0,17,0.00,,,-99.99,Weather View 32 v60,2013-03-29 23:14:00,
2013-03-29 19:24:00,55.8,11.5,30.09,SSE,156,0.0,5.0,17,0.00,,,-99.99,Weather View 32 v60,2013-03-29 23:24:00,
2013-03-29 19:31:00,55.6,11.4,30.09,SSE,156,0.0,5.0,17,0.00,,,-99.99,Weather View 32 v60,2013-03-29 23:31:00,
2013-03-29 19:39:00,55.2,11.1,30.09,SSE,156,0.0,5.0,17,0.00,,,-99.99,Weather View 32 v60,2013-03-29 23:39:00,
2013-03-29 19:44:00,55.0,10.9,30.09,SSE,156,0.0,4.0,17,0.00,,,-99.99,Weather View 32 v60,2013-03-29 23:44:00,
2013-03-29 19:49:00,54.9,10.8,30.09,SSE,156,0.0,4.0,17,0.00,,,-99.99,Weather View 32 v60,2013-03-29 23:49:00,
2013-03-29 19:59:00,54.5,10.5,30.09,SSE,156,0.0,4.0,17,0.00,,,-99.99,Weather View 32 v60,2013-03-29 23:59:00,
2013-03-29 20:04:00,54.3,11.6,30.09,SSE,156,0.0,4.0,18,0.00,,,-99.99,Weather View 32 v60,2013-03-30 00:04:00,
2013-03-29 20:09:00,54.1,11.5,30.09,SSE,156,0.0,4.0,18,0.00,,,-99.99,Weather View 32 v60,2013-03-30 00:09:00,
2013-03-29 20:14:00,54.0,11.3,30.09,SSE,156,0.0,3.0,18,0.00,,,-99.99,Weather View 32 v60,2013-03-30 00:14:00,
2013-03-29 20:24:00,53.8,11.2,30.09,SSE,156,0.0,3.0,18,0.00,,,-99.99,Weather View 32 v60,2013-03-30 00:24:00,
2013-03-29 20:29:00,53.6,11.0,30.09,SSE,156,0.0,3.0,18,0.00,,,-99.99,Weather View 32 v60,2013-03-30 00:29:00,
2013-03-29 20:34:00,53.4,10.9,30.09,SSE,156,0.0,3.0,18,0.00,,,-99.99,Weather View 32 v60,2013-03-30 00:34:00,
2013-03-29 20:39:00,53.2,10.8,30.09,SSE,156,0.0,3.0,18,0.00,,,-99.99,Weather View 32 v60,2013-03-30 00:39:00,
2013-03-29 20:49:00,53.1,10.6,30.09,SSE,156,0.0,3.0,18,0.00,,,-99.99,Weather View 32 v60,2013-03-30 00:49:00,
2013-03-29 20:54:00,52.9,10.5,30.09,SSE,156,0.0,3.0,18,0.00,,,-99.99,Weather View 32 v60,2013-03-30 00:54:00,
2013-03-29 20:59:00,52.9,10.5,30.09,SSE,156,0.0,3.0,18,0.00,,,-99.99,Weather View 32 v60,2013-03-30 00:59:00,
2013-03-29 21:09:00,52.7,10.3,30.09,SSE,156,0.0,3.0,18,0.00,,,-99.99,Weather View 32 v60,2013-03-30 01:09:00,
2013-03-29 21:19:00,52.5,10.2,30.09,SSE,156,0.0,3.0,18,0.00,,,-99.99,Weather View 32 v60,2013-03-30 01:19:00,
2013-03-29 21:29:00,52.2,9.9,30.09,SSE,156,0.0,0.0,18,0.00,,,-99.99,Weather View 32 v60,2013-03-30 01:29:00,
2013-03-29 21:34:00,52.2,9.9,30.09,SSE,156,0.0,0.0,18,0.00,,,-99.99,Weather View 32 v60,2013-03-30 01:34:00,
2013-03-29 21:39:00,52.0,9.7,30.09,SSE,156,0.0,0.0,18,0.00,,,-99.99,Weather View 32 v60,2013-03-30 01:39:00,
2013-03-29 21:49:00,52.0,9.7,30.09,SSE,156,0.0,0.0,18,0.00,,,-99.99,Weather View 32 v60,2013-03-30 01:49:00,
2013-03-29 21:54:00,51.8,9.6,30.09,SSE,156,0.0,0.0,18,0.00,,,-99.99,Weather View 32 v60,2013-03-30 01:54:00,
2013-03-29 22:04:00,51.8,9.6,30.09,SSE,156,0.0,0.0,18,0.00,,,-99.99,Weather View 32 v60,2013-03-30 02:04:00,
2013-03-29 22:09:00,51.8,9.6,30.09,SSE,156,0.0,0.0,18,0.00,,,-99.99,Weather View 32 v60,2013-03-30 02:09:00,
2013-03-29 22:14:00,51.8,9.6,30.09,SSE,156,0.0,0.0,18,0.00,,,-99.99,Weather View 32 v60,2013-03-30 02:14:00,
2013-03-29 22:24:00,51.6,9.4,30.09,SSE,156,0.0,0.0,18,0.00,,,-99.99,Weather View 32 v60,2013-03-30 02:24:00,
2013-03-29 22:29:00,51.6,9.4,30.09,SSE,156,0.0,0.0,18,0.00,,,-99.99,Weather View 32 v60,2013-03-30 02:29:00,
2013-03-29 22:39:00,51.4,9.3,30.09,SSE,156,0.0,0.0,18,0.00,,,-99.99,Weather View 32 v60,2013-03-30 02:39:00,
2013-03-29 22:49:00,51.4,9.3,30.09,SSE,156,0.0,0.0,18,0.00,,,-99.99,Weather View 32 v60,2013-03-30 02:49:00,
2013-03-29 22:54:00,51.4,9.3,30.09,SSE,156,0.0,0.0,18,0.00,,,-99.99,Weather View 32 v60,2013-03-30 02:54:00,
2013-03-29 23:04:00,51.3,9.1,30.09,SSE,156,0.0,0.0,18,0.00,,,-99.99,Weather View 32 v60,2013-03-30 03:04:00,
2013-03-29 23:09:00,51.3,9.1,30.09,SSE,156,0.0,0.0,18,0.00,,,-99.99,Weather View 32 v60,2013-03-30 03:09:00,
2013-03-29 23:14:00,51.1,9.0,30.09,SSE,156,0.0,0.0,18,0.00,,,-99.99,Weather View 32 v60,2013-03-30 03:14:00,
2013-03-29 23:24:00,51.1,9.0,30.09,SSE,156,0.0,0.0,18,0.00,,,-99.99,Weather View 32 v60,2013-03-30 03:24:00,
2013-03-29 23:29:00,51.1,9.0,30.09,SSE,156,0.0,0.0,18,0.00,,,-99.99,Weather View 32 v60,2013-03-30 03:29:00,
2013-03-29 23:39:00,51.1,9.0,30.09,SSE,156,0.0,0.0,18,0.00,,,-99.99,Weather View 32 v60,2013-03-30 03:39:00,
2013-03-29 23:44:00,50.9,8.8,30.09,SSE,156,0.0,0.0,18,0.00,,,-99.99,Weather View 32 v60,2013-03-30 03:44:00,
2013-03-29 23:54:00,50.9,8.8,30.09,SSE,156,0.0,0.0,18,0.00,,,-99.99,Weather View 32 v60,2013-03-30 03:54:00,